TimeCDT,TemperatureF,Dew PointF,Humidity,Sea Level PressureIn,VisibilityMPH,Wind Direction,Wind SpeedMPH,Gust SpeedMPH,PrecipitationIn,Events,Conditions,WindDirDegrees,DateUTC
12:33 AM,60.8,57.2,88,29.94,5.0,SE,8.1,-,0.00,,Overcast,140,2012-10-13 05:33:00
12:53 AM,60.1,57.9,93,29.91,5.0,SE,8.1,-,0.00,,Overcast,140,2012-10-13 05:53:00
1:53 AM,64.0,61.0,90,29.89,7.0,SSE,9.2,-,N/A,,Overcast,160,2012-10-13 06:53:00
2:27 AM,64.4,62.6,94,29.90,8.0,South,12.7,21.9,N/A,,Overcast,180,2012-10-13 07:27:00
2:53 AM,66.0,63.0,90,29.88,8.0,South,12.7,19.6,N/A,,Overcast,180,2012-10-13 07:53:00
3:53 AM,62.1,59.0,90,29.94,6.0,NW,17.3,32.2,0.01,Rain-Thunderstorm,Light Rain,320,2012-10-13 08:53:00
4:03 AM,57.2,55.4,94,29.94,7.0,NW,13.8,-,N/A,Rain,Rain,310,2012-10-13 09:03:00
4:13 AM,57.2,55.4,94,29.94,8.0,NW,8.1,-,0.03,Rain,Light Rain,310,2012-10-13 09:13:00
4:28 AM,57.2,55.4,94,29.94,10.0,West,6.9,-,0.03,Rain-Thunderstorm,Light Rain,270,2012-10-13 09:28:00
4:43 AM,59.0,55.4,88,29.93,5.0,SSW,4.6,-,0.05,Rain,Light Rain,210,2012-10-13 09:43:00
4:53 AM,59.0,57.0,93,29.92,10.0,SSW,5.8,-,0.05,Rain-Thunderstorm,Light Rain,200,2012-10-13 09:53:00
5:03 AM,59.0,57.2,94,29.91,8.0,SSE,5.8,-,0.01,Rain-Thunderstorm,Light Rain,160,2012-10-13 10:03:00
5:10 AM,59.0,57.2,94,29.90,6.0,SE,5.8,-,0.02,Rain,Light Rain,130,2012-10-13 10:10:00
5:41 AM,59.0,57.2,94,29.91,3.0,SSW,8.1,-,N/A,Rain-Thunderstorm,Heavy Rain,200,2012-10-13 10:41:00
5:45 AM,59.0,57.2,94,29.91,1.8,South,8.1,-,N/A,Rain-Thunderstorm,Heavy Rain,190,2012-10-13 10:45:00
5:53 AM,59.0,57.9,96,29.90,1.8,South,6.9,-,0.25,Rain,Heavy Rain,180,2012-10-13 10:53:00
6:01 AM,60.8,57.2,88,29.90,3.0,South,6.9,-,0.07,Rain,Heavy Rain,180,2012-10-13 11:01:00
6:22 AM,60.8,57.2,88,29.90,10.0,South,6.9,-,0.08,Rain-Thunderstorm,Light Rain,180,2012-10-13 11:22:00
6:51 AM,60.8,59.0,94,29.93,5.0,SSW,8.1,-,0.15,Rain-Thunderstorm,Thunderstorms and Rain,210,2012-10-13 11:51:00
6:53 AM,61.0,59.0,93,29.91,4.0,SW,4.6,-,0.16,Rain-Thunderstorm,Heavy Thunderstorms and Rain,220,2012-10-13 11:53:00
7:53 AM,61.0,59.0,93,29.84,10.0,SSE,6.9,-,0.03,,Overcast,160,2012-10-13 12:53:00
8:53 AM,63.0,60.1,90,29.81,10.0,South,9.2,-,N/A,,Clear,170,2012-10-13 13:53:00
9:53 AM,64.9,61.0,87,29.80,10.0,SSE,12.7,-,N/A,,Partly Cloudy,150,2012-10-13 14:53:00
10:38 AM,68.0,60.8,78,29.81,10.0,SSE,13.8,24.2,N/A,,Overcast,150,2012-10-13 15:38:00
10:53 AM,68.0,62.1,81,29.79,10.0,SSE,16.1,-,N/A,,Overcast,160,2012-10-13 15:53:00
11:53 AM,71.1,64.9,81,29.75,9.0,South,12.7,-,N/A,,Overcast,180,2012-10-13 16:53:00
12:53 PM,73.9,66.0,76,29.72,10.0,South,12.7,-,N/A,,Overcast,180,2012-10-13 17:53:00
1:00 PM,73.4,66.2,78,29.74,10.0,South,9.2,-,N/A,,Overcast,180,2012-10-13 18:00:00
1:53 PM,75.0,66.9,76,29.68,10.0,South,13.8,20.7,N/A,,Overcast,190,2012-10-13 18:53:00
2:53 PM,77.0,66.2,69,29.66,10.0,SSW,16.1,20.7,N/A,,Mostly Cloudy,200,2012-10-13 19:53:00
3:53 PM,79.0,68.0,69,29.60,10.0,South,11.5,-,N/A,,Mostly Cloudy,170,2012-10-13 20:53:00
4:53 PM,79.0,66.0,64,29.56,10.0,SSE,15.0,27.6,N/A,,Mostly Cloudy,160,2012-10-13 21:53:00
5:32 PM,78.8,66.2,65,29.57,10.0,SSE,13.8,-,0.00,Thunderstorm,Thunderstorm,160,2012-10-13 22:32:00
5:53 PM,79.0,66.9,66,29.54,10.0,South,15.0,-,0.00,Thunderstorm,Thunderstorm,170,2012-10-13 22:53:00
6:48 PM,64.4,60.8,88,29.61,1.5,West,19.6,34.5,0.11,Rain-Thunderstorm,Light Thunderstorms and Rain,270,2012-10-13 23:48:00
6:53 PM,64.4,60.8,88,29.61,1.0,SSW,8.1,34.5,N/A,Rain-Thunderstorm,Thunderstorms and Rain,200,2012-10-13 23:53:00
7:30 PM,66.2,60.8,83,29.58,10.0,Calm,Calm,-,0.08,,Mostly Cloudy,0,2012-10-14 00:30:00
7:53 PM,64.9,60.1,84,29.57,10.0,Calm,Calm,-,0.08,,Clear,0,2012-10-14 00:53:00
8:53 PM,64.0,61.0,90,29.60,10.0,Calm,Calm,-,N/A,,Mostly Cloudy,0,2012-10-14 01:53:00
9:53 PM,63.0,60.1,90,29.60,10.0,Calm,Calm,-,N/A,,Clear,0,2012-10-14 02:53:00
10:53 PM,57.2,55.4,94,29.61,2.0,WSW,8.1,-,N/A,,Clear,250,2012-10-14 03:53:00
11:07 PM,59.0,57.2,94,29.61,6.0,WSW,4.6,-,N/A,,Clear,240,2012-10-14 04:07:00
11:53 PM,57.2,51.8,82,29.60,10.0,WNW,6.9,-,N/A,,Clear,300,2012-10-14 04:53:00